This is the latest recevied weather packets stored in our database for station/object WD9EKA. If no packets are shown the sender has not sent any weather packets the latest 10 day(s).
| Time | Temp. | Humidity | Pressure | Rain* | Wind** | Luminosity | Snow |
|---|---|---|---|---|---|---|---|
| 1778037094 | 6.67° C | 99% | 1006.1 hPa | 0.51 mm | - | - | - |
| 1778036734 | 6.11° C | 99% | 1006.2 hPa | 0.51 mm | - | - | - |
| 1778036374 | 6.67° C | 99% | 1005.7 hPa | 1.02 mm | - | - | - |
| 1778036013 | 6.67° C | 99% | 1005.6 hPa | 1.78 mm | - | - | - |
| 1778035654 | 6.67° C | 99% | 1005.9 hPa | 2.54 mm | - | - | - |
| 1778035293 | 6.67° C | 99% | 1005.7 hPa | 2.79 mm | - | - | - |
| 1778034934 | 6.67° C | 99% | 1005.7 hPa | 3.05 mm | - | - | - |
| 1778034574 | 6.67° C | 99% | 1005.3 hPa | 2.79 mm | - | - | - |
| 1778034214 | 6.67° C | 99% | 1005 hPa | 2.79 mm | - | - | - |
| 1778033854 | 6.67° C | 99% | 1004.8 hPa | 2.54 mm | - | - | - |
| 1778033493 | 6.67° C | 99% | 1005.4 hPa | 2.79 mm | - | - | - |
| 1778033134 | 6.67° C | 99% | 1005.5 hPa | 2.54 mm | - | - | - |
| 1778032774 | 7.22° C | 99% | 1005 hPa | 2.29 mm | - | - | - |
| 1778032414 | 8.33° C | 99% | 1005.3 hPa | 1.78 mm | - | - | - |
| 1778032054 | 8.33° C | 99% | 1005.5 hPa | 2.03 mm | - | - | - |
| 1778031694 | 8.33° C | 99% | 1005.1 hPa | 2.03 mm | - | - | - |
| 1778031334 | 8.33° C | 99% | 1004.1 hPa | 2.29 mm | - | - | - |
| 1778030974 | 8.33° C | 99% | 1004.2 hPa | 2.29 mm | - | - | - |
| 1778030614 | 8.33° C | 99% | 1003.9 hPa | 2.54 mm | - | - | - |
| 1778030254 | 8.33° C | 99% | 1004 hPa | 2.54 mm | - | - | - |
| 1778029894 | 8.33° C | 99% | 1004.3 hPa | 2.29 mm | - | - | - |
| 1778029589 | 8.33° C | 99% | 1004.1 hPa | 2.54 mm | - | - | - |
| 1778029268 | 8.33° C | 99% | 1004.7 hPa | 2.54 mm | - | - | - |
| 1778028940 | 8.33° C | 99% | 1004 hPa | 2.29 mm | - | - | - |
| 1778028634 | 8.89° C | 99% | 1004.4 hPa | 1.78 mm | - | - | - |
* Rain latest hour (hover to see other rain measurements)
** Current wind speed in m/s (hover to see current wind gust speed)